Time,TemperatureF,DewpointF,PressureIn,WindDirection,WindDirectionDegrees,WindSpeedMPH,WindSpeedGustMPH,Humidity,HourlyPrecipIn,Conditions,Clouds,dailyrainin,SoftwareType,DateUTC
2013-04-05 00:03:00,40.5,38.7,27.88,SSW,211,0.4,1.3,93,0.00,,,0.00,WSDL version 423,2013-04-05 04:03:00,
2013-04-05 00:08:00,40.5,38.7,27.88,South,180,0.6,1.6,93,0.00,,,0.00,WSDL version 423,2013-04-05 04:08:00,
2013-04-05 00:13:00,40.5,38.7,27.88,South,180,0.0,1.6,93,0.00,,,0.00,WSDL version 423,2013-04-05 04:13:00,
2013-04-05 00:18:00,40.6,38.8,27.88,South,180,0.0,0.0,93,0.00,,,0.00,WSDL version 423,2013-04-05 04:18:00,
2013-04-05 00:23:00,40.6,39.0,27.88,South,180,0.0,1.1,94,0.00,,,0.00,WSDL version 423,2013-04-05 04:23:00,
2013-04-05 00:28:00,40.6,39.2,27.88,South,180,0.0,1.1,94,0.00,,,0.00,WSDL version 423,2013-04-05 04:28:00,
2013-04-05 00:33:00,40.6,39.2,27.88,South,180,0.0,0.0,94,0.00,,,0.00,WSDL version 423,2013-04-05 04:33:00,
2013-04-05 00:38:00,40.6,39.0,27.88,South,180,0.0,0.0,93,0.00,,,0.00,WSDL version 423,2013-04-05 04:38:00,
2013-04-05 00:43:00,40.6,38.9,27.88,South,180,0.0,0.0,93,0.00,,,0.00,WSDL version 423,2013-04-05 04:43:00,
2013-04-05 00:48:00,40.6,38.9,27.88,South,180,0.0,0.0,93,0.00,,,0.00,WSDL version 423,2013-04-05 04:48:00,
2013-04-05 00:53:00,40.6,38.9,27.88,South,180,0.0,0.0,93,0.00,,,0.00,WSDL version 423,2013-04-05 04:53:00,
2013-04-05 00:58:00,40.6,38.9,27.88,South,180,0.0,0.0,93,0.00,,,0.00,WSDL version 423,2013-04-05 04:58:00,
2013-04-05 01:03:00,40.5,38.7,27.88,South,180,0.0,0.0,93,0.00,,,0.00,WSDL version 423,2013-04-05 05:03:00,
2013-04-05 01:08:00,40.5,38.7,27.88,South,180,0.0,0.0,93,0.00,,,0.00,WSDL version 423,2013-04-05 05:08:00,
2013-04-05 01:13:00,40.5,38.7,27.88,South,180,0.0,0.0,93,0.00,,,0.00,WSDL version 423,2013-04-05 05:13:00,
2013-04-05 01:18:00,40.5,38.7,27.88,South,180,0.0,0.0,93,0.00,,,0.00,WSDL version 423,2013-04-05 05:18:00,
2013-04-05 01:23:00,40.5,38.9,27.88,South,180,0.0,0.0,94,0.00,,,0.00,WSDL version 423,2013-04-05 05:23:00,
2013-04-05 01:28:00,40.5,38.8,27.88,South,180,0.0,0.0,93,0.00,,,0.00,WSDL version 423,2013-04-05 05:28:00,
2013-04-05 01:33:00,40.5,38.7,27.88,South,180,0.0,0.0,93,0.00,,,0.00,WSDL version 423,2013-04-05 05:33:00,
2013-04-05 01:38:00,40.5,38.7,27.88,South,180,0.0,0.0,93,0.00,,,0.00,WSDL version 423,2013-04-05 05:38:00,
2013-04-05 01:43:00,40.5,38.7,27.88,South,180,0.0,0.0,93,0.00,,,0.00,WSDL version 423,2013-04-05 05:43:00,
2013-04-05 01:48:00,40.5,38.7,27.88,South,180,0.0,0.0,93,0.00,,,0.00,WSDL version 423,2013-04-05 05:48:00,
2013-04-05 01:53:00,40.5,38.9,27.88,South,180,0.0,0.0,93,0.00,,,0.00,WSDL version 423,2013-04-05 05:53:00,
2013-04-05 01:58:00,40.5,38.7,27.88,South,180,0.0,0.0,93,0.00,,,0.00,WSDL version 423,2013-04-05 05:58:00,
2013-04-05 02:03:00,40.5,38.7,27.88,South,180,0.0,0.0,93,0.00,,,0.00,WSDL version 423,2013-04-05 06:03:00,
2013-04-05 02:08:00,40.5,38.7,27.88,South,180,0.0,0.0,93,0.00,,,0.00,WSDL version 423,2013-04-05 06:08:00,
2013-04-05 02:13:00,40.5,38.7,27.88,South,180,0.0,0.0,93,0.00,,,0.00,WSDL version 423,2013-04-05 06:13:00,
2013-04-05 02:18:00,40.5,38.7,27.88,South,180,0.0,0.0,93,0.00,,,0.00,WSDL version 423,2013-04-05 06:18:00,
2013-04-05 02:23:00,40.5,38.7,27.88,South,180,0.0,0.0,93,0.00,,,0.00,WSDL version 423,2013-04-05 06:23:00,
2013-04-05 02:28:00,40.5,38.7,27.88,South,176,0.0,0.0,93,0.00,,,0.00,WSDL version 423,2013-04-05 06:28:00,
2013-04-05 02:33:00,40.5,38.7,27.88,South,183,0.0,0.9,93,0.00,,,0.00,WSDL version 423,2013-04-05 06:33:00,
2013-04-05 02:38:00,40.5,38.9,27.88,NNW,338,0.0,2.2,94,0.00,,,0.00,WSDL version 423,2013-04-05 06:38:00,
2013-04-05 02:43:00,40.5,39.0,27.88,WNW,293,0.0,2.2,94,0.00,,,0.00,WSDL version 423,2013-04-05 06:43:00,
2013-04-05 02:53:00,40.3,39.1,27.88,NW,315,1.1,2.0,96,0.00,,,0.00,WSDL version 423,2013-04-05 06:53:00,
2013-04-05 02:58:00,40.3,39.1,27.88,NW,323,0.0,2.0,96,0.00,,,0.00,WSDL version 423,2013-04-05 06:58:00,
2013-04-05 03:03:00,40.3,39.3,27.88,WSW,248,0.0,1.6,97,0.00,,,0.00,WSDL version 423,2013-04-05 07:03:00,
2013-04-05 03:08:00,40.1,39.2,27.88,WSW,248,0.0,1.6,96,0.00,,,0.00,WSDL version 423,2013-04-05 07:08:00,
2013-04-05 03:13:00,40.1,38.9,27.85,WSW,248,0.0,0.0,96,0.00,,,0.00,WSDL version 423,2013-04-05 07:13:00,
2013-04-05 03:18:00,40.1,39.0,27.85,WSW,248,0.0,0.0,96,0.00,,,0.00,WSDL version 423,2013-04-05 07:18:00,
2013-04-05 03:24:00,40.3,39.4,27.85,SW,225,0.0,0.0,97,0.00,,,0.00,WSDL version 423,2013-04-05 07:24:00,
2013-04-05 03:29:00,40.3,39.4,27.85,SSW,203,0.7,1.3,97,0.00,,,0.00,WSDL version 423,2013-04-05 07:29:00,
2013-04-05 03:35:00,40.3,39.4,27.85,SSW,203,0.0,1.3,97,0.00,,,0.00,WSDL version 423,2013-04-05 07:35:00,
2013-04-05 03:44:00,40.3,39.4,27.85,SSW,203,0.0,0.0,97,0.00,,,0.00,WSDL version 423,2013-04-05 07:44:00,
2013-04-05 03:50:00,40.3,39.4,27.85,SSW,203,0.0,0.0,97,0.00,,,0.00,WSDL version 423,2013-04-05 07:50:00,
2013-04-05 04:00:00,40.5,39.4,27.85,SSE,158,0.0,0.0,96,0.00,,,0.00,WSDL version 423,2013-04-05 08:00:00,
2013-04-05 04:09:00,40.3,39.1,27.85,SSE,158,0.0,0.0,96,0.00,,,0.00,WSDL version 423,2013-04-05 08:09:00,
2013-04-05 04:14:00,40.3,39.2,27.85,West,270,0.9,1.3,96,0.00,,,0.00,WSDL version 423,2013-04-05 08:14:00,
2013-04-05 04:19:00,40.5,39.4,27.85,NW,315,1.5,2.5,97,0.00,,,0.00,WSDL version 423,2013-04-05 08:19:00,
2013-04-05 04:24:00,40.5,39.6,27.85,NW,305,1.5,2.5,97,0.00,,,0.00,WSDL version 423,2013-04-05 08:24:00,
2013-04-05 04:29:00,40.5,39.9,27.85,WNW,289,1.2,2.5,98,0.00,,,0.00,WSDL version 423,2013-04-05 08:29:00,
2013-04-05 04:34:00,40.4,39.9,27.85,SSW,212,0.8,2.5,98,0.00,,,0.00,WSDL version 423,2013-04-05 08:34:00,
2013-04-05 04:39:00,40.3,39.7,27.85,West,263,0.3,2.0,98,0.00,,,0.00,WSDL version 423,2013-04-05 08:39:00,
2013-04-05 04:44:00,40.4,39.8,27.85,WSW,245,1.1,2.7,98,0.00,,,0.00,WSDL version 423,2013-04-05 08:44:00,
2013-04-05 04:49:00,40.5,39.9,27.85,NW,304,1.2,2.7,98,0.00,,,0.00,WSDL version 423,2013-04-05 08:49:00,
2013-04-05 04:54:00,40.5,39.9,27.85,West,273,1.1,2.7,98,0.00,,,0.00,WSDL version 423,2013-04-05 08:54:00,
2013-04-05 05:00:00,40.5,39.9,27.85,WNW,302,0.9,2.9,98,0.00,,,0.00,WSDL version 423,2013-04-05 09:00:00,
2013-04-05 05:09:00,40.5,39.9,27.85,West,270,0.0,2.5,98,0.00,,,0.00,WSDL version 423,2013-04-05 09:09:00,
2013-04-05 05:14:00,40.5,39.9,27.85,NE,49,0.4,3.8,98,0.00,,,0.00,WSDL version 423,2013-04-05 09:14:00,
2013-04-05 05:24:00,40.6,40.0,27.85,SSE,166,0.7,2.0,98,0.00,,,0.00,WSDL version 423,2013-04-05 09:24:00,
2013-04-05 05:34:00,40.6,40.2,27.85,WNW,288,2.5,3.4,99,0.00,,,0.00,WSDL version 423,2013-04-05 09:34:00,
2013-04-05 05:39:00,40.6,40.4,27.88,West,270,0.5,3.4,99,0.00,,,0.00,WSDL version 423,2013-04-05 09:39:00,
2013-04-05 05:44:00,40.6,40.2,27.88,West,270,0.0,2.5,98,0.00,,,0.00,WSDL version 423,2013-04-05 09:44:00,
2013-04-05 05:49:00,40.6,40.1,27.88,WSW,248,0.0,0.0,98,0.00,,,0.00,WSDL version 423,2013-04-05 09:49:00,
2013-04-05 05:55:00,40.6,40.1,27.88,SSW,203,0.0,0.0,98,0.00,,,0.00,WSDL version 423,2013-04-05 09:55:00,
2013-04-05 06:08:00,40.6,40.1,27.85,NNE,32,1.9,3.6,98,0.00,,,0.00,WSDL version 423,2013-04-05 10:08:00,
2013-04-05 06:13:00,40.6,40.1,27.85,WNW,288,1.4,3.8,98,0.00,,,0.00,WSDL version 423,2013-04-05 10:13:00,
2013-04-05 06:18:00,40.8,40.5,27.85,WSW,242,0.0,3.8,99,0.00,,,0.00,WSDL version 423,2013-04-05 10:18:00,
2013-04-05 06:24:00,40.8,40.2,27.85,WNW,293,1.2,2.9,98,0.00,,,0.00,WSDL version 423,2013-04-05 10:24:00,
2013-04-05 06:34:00,40.8,40.4,27.85,West,266,1.7,3.1,99,0.00,,,0.00,WSDL version 423,2013-04-05 10:34:00,
2013-04-05 06:42:00,40.8,40.5,27.85,WSW,248,2.1,5.6,99,0.00,,,0.00,WSDL version 423,2013-04-05 10:42:00,
2013-04-05 06:47:00,40.8,40.5,27.85,ENE,73,2.1,5.6,99,0.00,,,0.00,WSDL version 423,2013-04-05 10:47:00,
2013-04-05 06:52:00,40.8,40.5,27.85,NW,315,1.9,4.3,99,0.00,,,0.00,WSDL version 423,2013-04-05 10:52:00,
2013-04-05 06:57:00,40.8,40.5,27.88,East,84,2.0,3.1,99,0.00,,,0.00,WSDL version 423,2013-04-05 10:57:00,
2013-04-05 07:02:00,40.6,40.4,27.88,East,101,1.9,3.1,99,0.00,,,0.00,WSDL version 423,2013-04-05 11:02:00,
2013-04-05 07:07:00,40.6,40.2,27.88,East,87,0.9,3.4,98,0.00,,,0.00,WSDL version 423,2013-04-05 11:07:00,
2013-04-05 07:12:00,40.6,40.1,27.88,West,267,0.4,3.4,98,0.00,,,0.00,WSDL version 423,2013-04-05 11:12:00,
2013-04-05 07:17:00,40.6,40.1,27.88,NNE,26,1.7,3.1,98,0.00,,,0.00,WSDL version 423,2013-04-05 11:17:00,
2013-04-05 07:22:00,40.6,40.1,27.88,WSW,255,0.4,3.1,98,0.00,,,0.00,WSDL version 423,2013-04-05 11:22:00,
2013-04-05 07:27:00,40.6,40.0,27.88,West,270,0.0,1.6,98,0.00,,,0.00,WSDL version 423,2013-04-05 11:27:00,
2013-04-05 07:32:00,40.5,39.9,27.88,West,270,0.0,0.0,98,0.00,,,0.00,WSDL version 423,2013-04-05 11:32:00,
2013-04-05 07:40:00,40.5,39.6,27.88,West,281,1.9,2.2,97,0.00,,,0.00,WSDL version 423,2013-04-05 11:40:00,
2013-04-05 07:45:00,40.5,39.6,27.88,NNW,343,0.1,2.9,97,0.00,,,0.00,WSDL version 423,2013-04-05 11:45:00,
2013-04-05 07:50:00,40.5,39.6,27.88,WNW,293,0.0,2.9,97,0.00,,,0.00,WSDL version 423,2013-04-05 11:50:00,
2013-04-05 07:55:00,40.5,39.6,27.88,West,270,0.0,2.0,97,0.00,,,0.00,WSDL version 423,2013-04-05 11:55:00,
2013-04-05 08:00:00,40.5,39.6,27.88,NNE,23,1.0,2.7,97,0.00,,,0.00,WSDL version 423,2013-04-05 12:00:00,
2013-04-05 08:05:00,40.5,39.6,27.88,SSE,158,0.0,2.7,97,0.00,,,0.00,WSDL version 423,2013-04-05 12:05:00,
2013-04-05 08:10:00,40.5,39.4,27.91,West,263,0.0,2.7,96,0.00,,,0.00,WSDL version 423,2013-04-05 12:10:00,
2013-04-05 08:15:00,40.5,39.3,27.91,SSE,158,0.3,2.0,96,0.00,,,0.00,WSDL version 423,2013-04-05 12:15:00,
2013-04-05 08:20:00,40.5,39.3,27.91,North,10,1.3,2.7,96,0.00,,,0.00,WSDL version 423,2013-04-05 12:20:00,
2013-04-05 08:25:00,40.5,39.3,27.88,NE,43,0.7,2.7,96,0.00,,,0.00,WSDL version 423,2013-04-05 12:25:00,
2013-04-05 08:30:00,40.5,39.3,27.88,SSW,197,0.0,2.5,96,0.00,,,0.00,WSDL version 423,2013-04-05 12:30:00,
2013-04-05 08:35:00,40.5,39.3,27.88,WNW,298,1.9,2.9,96,0.00,,,0.00,WSDL version 423,2013-04-05 12:35:00,
2013-04-05 08:40:00,40.5,39.3,27.91,NW,318,1.9,3.6,96,0.00,,,0.00,WSDL version 423,2013-04-05 12:40:00,
2013-04-05 08:45:00,40.3,38.9,27.91,NW,312,1.2,4.7,94,0.00,,,0.00,WSDL version 423,2013-04-05 12:45:00,
2013-04-05 08:50:00,40.5,39.0,27.91,WNW,284,1.0,4.7,94,0.00,,,0.00,WSDL version 423,2013-04-05 12:50:00,
2013-04-05 08:55:00,40.5,39.0,27.91,South,183,0.4,3.6,94,0.00,,,0.00,WSDL version 423,2013-04-05 12:55:00,
2013-04-05 09:00:00,40.5,39.1,27.91,West,275,1.6,3.6,94,0.00,,,0.00,WSDL version 423,2013-04-05 13:00:00,
2013-04-05 09:05:00,40.6,39.2,27.91,NNW,343,0.0,2.9,94,0.00,,,0.00,WSDL version 423,2013-04-05 13:05:00,
2013-04-05 09:10:00,40.6,39.2,27.91,ENE,77,0.4,3.8,94,0.00,,,0.00,WSDL version 423,2013-04-05 13:10:00,
2013-04-05 09:15:00,40.9,39.3,27.91,West,270,2.1,3.8,93,0.00,,,0.00,WSDL version 423,2013-04-05 13:15:00,
2013-04-05 09:25:00,41.7,39.9,27.91,NW,315,2.3,3.4,93,0.00,,,0.00,WSDL version 423,2013-04-05 13:25:00,
2013-04-05 09:30:00,42.0,40.0,27.91,NW,321,1.6,3.1,92,0.00,,,0.00,WSDL version 423,2013-04-05 13:30:00,
2013-04-05 09:37:00,42.3,39.9,27.91,WNW,293,2.2,3.1,91,0.00,,,0.00,WSDL version 423,2013-04-05 13:37:00,
2013-04-05 09:42:00,42.4,39.7,27.91,NW,305,2.1,3.1,90,0.00,,,0.00,WSDL version 423,2013-04-05 13:42:00,
2013-04-05 09:47:00,42.4,39.4,27.91,NNW,338,1.2,3.6,89,0.00,,,0.00,WSDL version 423,2013-04-05 13:47:00,
2013-04-05 09:52:00,42.8,39.6,27.91,NW,323,1.1,3.6,89,0.00,,,0.00,WSDL version 423,2013-04-05 13:52:00,
2013-04-05 10:02:00,43.8,40.4,27.91,WNW,296,1.3,4.9,88,0.00,,,0.00,WSDL version 423,2013-04-05 14:02:00,
2013-04-05 10:07:00,44.1,40.2,27.91,NW,305,2.6,7.8,84,0.00,,,0.00,WSDL version 423,2013-04-05 14:07:00,
2013-04-05 10:17:00,45.4,41.2,27.91,WNW,295,2.6,3.8,84,0.00,,,0.00,WSDL version 423,2013-04-05 14:17:00,
2013-04-05 10:22:00,45.6,40.5,27.91,NW,318,2.6,3.8,79,0.00,,,0.00,WSDL version 423,2013-04-05 14:22:00,
2013-04-05 10:28:00,46.1,40.1,27.91,WNW,293,2.6,4.0,80,0.00,,,0.00,WSDL version 423,2013-04-05 14:28:00,
2013-04-05 10:35:00,46.6,40.3,27.91,WNW,296,3.2,5.6,75,0.00,,,0.00,WSDL version 423,2013-04-05 14:35:00,
2013-04-05 10:40:00,46.4,39.5,27.91,NW,304,2.6,5.6,77,0.00,,,0.00,WSDL version 423,2013-04-05 14:40:00,
2013-04-05 10:45:00,46.4,39.8,27.91,NW,309,1.6,4.0,78,0.00,,,0.00,WSDL version 423,2013-04-05 14:45:00,
2013-04-05 10:50:00,47.0,40.9,27.91,WNW,290,2.0,3.4,80,0.00,,,0.00,WSDL version 423,2013-04-05 14:50:00,
2013-04-05 10:56:00,47.8,41.3,27.94,West,261,2.4,3.8,75,0.00,,,0.00,WSDL version 423,2013-04-05 14:56:00,
2013-04-05 11:04:00,48.1,40.4,27.94,NW,315,2.0,7.4,75,0.00,,,0.00,WSDL version 423,2013-04-05 15:04:00,
2013-04-05 11:09:00,48.7,40.9,27.94,WNW,286,3.2,5.4,72,0.00,,,0.00,WSDL version 423,2013-04-05 15:09:00,
2013-04-05 11:14:00,48.9,38.6,27.91,WNW,293,2.9,6.0,66,0.00,,,0.00,WSDL version 423,2013-04-05 15:14:00,
2013-04-05 11:29:00,51.2,41.0,27.91,SSE,154,1.8,5.6,66,0.00,,,0.00,WSDL version 423,2013-04-05 15:29:00,
2013-04-05 11:39:00,50.9,39.6,27.91,West,270,1.3,3.6,64,0.00,,,0.00,WSDL version 423,2013-04-05 15:39:00,
2013-04-05 11:46:00,50.2,37.7,27.91,WNW,298,3.0,4.3,60,0.00,,,0.00,WSDL version 423,2013-04-05 15:46:00,
2013-04-05 11:51:00,50.8,37.4,27.91,WNW,289,2.7,6.3,59,0.00,,,0.00,WSDL version 423,2013-04-05 15:51:00,
2013-04-05 11:56:00,51.4,37.0,27.91,NW,309,2.1,6.3,57,0.00,,,0.00,WSDL version 423,2013-04-05 15:56:00,
2013-04-05 12:08:00,52.0,36.7,27.91,NW,312,2.0,4.7,55,0.00,,,0.00,WSDL version 423,2013-04-05 16:08:00,
2013-04-05 12:13:00,51.6,36.3,27.91,NW,320,2.6,5.6,55,0.00,,,0.00,WSDL version 423,2013-04-05 16:13:00,
2013-04-05 12:20:00,52.2,37.0,27.91,East,79,2.3,5.6,55,0.00,,,0.00,WSDL version 423,2013-04-05 16:20:00,
2013-04-05 12:25:00,53.4,37.9,27.91,East,90,3.1,5.4,55,0.00,,,0.00,WSDL version 423,2013-04-05 16:25:00,
2013-04-05 12:35:00,54.2,37.7,27.91,NW,304,2.3,4.3,54,0.00,,,0.00,WSDL version 423,2013-04-05 16:35:00,
2013-04-05 12:40:00,54.5,37.8,27.91,ENE,73,2.7,4.3,53,0.00,,,0.00,WSDL version 423,2013-04-05 16:40:00,
2013-04-05 12:45:00,55.4,37.9,27.91,North,352,2.8,4.7,53,0.00,,,0.00,WSDL version 423,2013-04-05 16:45:00,
2013-04-05 12:50:00,56.3,38.6,27.91,North,350,2.5,4.7,52,0.00,,,0.00,WSDL version 423,2013-04-05 16:50:00,
2013-04-05 12:56:00,55.8,36.8,27.91,NE,48,2.9,5.4,49,0.00,,,0.00,WSDL version 423,2013-04-05 16:56:00,
2013-04-05 13:01:00,56.3,37.7,27.91,WNW,296,3.2,4.7,49,0.00,,,0.00,WSDL version 423,2013-04-05 17:01:00,
2013-04-05 13:06:00,56.2,36.8,27.91,WNW,296,2.6,5.8,48,0.00,,,0.00,WSDL version 423,2013-04-05 17:06:00,
2013-04-05 13:11:00,56.2,36.2,27.91,WNW,295,3.5,5.8,47,0.00,,,0.00,WSDL version 423,2013-04-05 17:11:00,
2013-04-05 13:16:00,56.3,37.1,27.91,WNW,301,3.6,4.9,48,0.00,,,0.00,WSDL version 423,2013-04-05 17:16:00,
2013-04-05 13:26:00,56.3,38.2,27.91,NW,310,3.8,6.0,48,0.00,,,0.00,WSDL version 423,2013-04-05 17:26:00,
2013-04-05 13:31:00,56.0,36.4,27.91,WNW,298,4.0,6.0,50,0.00,,,0.00,WSDL version 423,2013-04-05 17:31:00,
2013-04-05 13:36:00,55.6,36.3,27.91,WNW,301,3.7,6.3,48,0.00,,,0.00,WSDL version 423,2013-04-05 17:36:00,
2013-04-05 13:43:00,55.8,36.1,27.91,WNW,288,4.7,7.2,47,0.00,,,0.00,WSDL version 423,2013-04-05 17:43:00,
2013-04-05 13:53:00,55.9,36.0,27.91,NW,307,3.8,8.7,47,0.00,,,0.00,WSDL version 423,2013-04-05 17:53:00,
2013-04-05 14:03:00,55.9,36.3,27.91,WNW,296,4.0,6.5,48,0.00,,,0.00,WSDL version 423,2013-04-05 18:03:00,
2013-04-05 14:10:00,55.8,35.7,27.91,NW,305,3.0,7.6,48,0.00,,,0.00,WSDL version 423,2013-04-05 18:10:00,
2013-04-05 14:15:00,55.9,35.8,27.91,NW,304,5.3,6.3,47,0.00,,,0.00,WSDL version 423,2013-04-05 18:15:00,
2013-04-05 14:31:00,56.6,36.1,27.91,NW,309,2.5,6.5,46,0.00,,,0.00,WSDL version 423,2013-04-05 18:31:00,
2013-04-05 14:40:00,57.1,36.1,27.91,SW,225,2.3,4.3,45,0.00,,,0.00,WSDL version 423,2013-04-05 18:40:00,
2013-04-05 14:45:00,57.1,34.6,27.91,NE,38,2.5,4.3,43,0.00,,,0.00,WSDL version 423,2013-04-05 18:45:00,
2013-04-05 14:50:00,57.0,35.3,27.91,West,280,2.5,5.6,45,0.00,,,0.00,WSDL version 423,2013-04-05 18:50:00,
2013-04-05 14:55:00,57.2,35.1,27.91,WNW,301,3.2,5.6,44,0.00,,,0.00,WSDL version 423,2013-04-05 18:55:00,
2013-04-05 15:00:00,57.4,35.1,27.91,WNW,293,3.0,5.6,45,0.00,,,0.00,WSDL version 423,2013-04-05 19:00:00,
2013-04-05 15:07:00,57.7,34.6,27.91,WNW,296,4.3,6.5,42,0.00,,,0.00,WSDL version 423,2013-04-05 19:07:00,
2013-04-05 15:17:00,58.1,35.6,27.88,WNW,295,3.6,6.5,43,0.00,,,0.00,WSDL version 423,2013-04-05 19:17:00,
2013-04-05 15:22:00,58.3,33.9,27.88,WNW,295,5.2,6.9,40,0.00,,,0.00,WSDL version 423,2013-04-05 19:22:00,
2013-04-05 15:31:00,57.7,32.6,27.91,NNW,346,2.7,5.6,38,0.00,,,0.00,WSDL version 423,2013-04-05 19:31:00,
2013-04-05 15:36:00,57.7,32.3,27.91,WNW,295,3.3,5.6,38,0.00,,,0.00,WSDL version 423,2013-04-05 19:36:00,
2013-04-05 15:43:00,58.3,32.8,27.91,West,270,4.0,6.7,38,0.00,,,0.00,WSDL version 423,2013-04-05 19:43:00,
2013-04-05 15:48:00,58.7,32.7,27.91,WSW,253,3.5,6.7,38,0.00,,,0.00,WSDL version 423,2013-04-05 19:48:00,
2013-04-05 15:53:00,59.0,32.3,27.91,WNW,299,3.3,5.6,36,0.00,,,0.00,WSDL version 423,2013-04-05 19:53:00,
2013-04-05 15:58:00,58.9,31.9,27.91,WNW,293,3.4,5.6,35,0.00,,,0.00,WSDL version 423,2013-04-05 19:58:00,
2013-04-05 16:03:00,59.0,31.8,27.91,NW,321,2.2,5.4,35,0.00,,,0.00,WSDL version 423,2013-04-05 20:03:00,
2013-04-05 16:16:00,59.6,31.8,27.91,NNW,338,3.4,6.7,34,0.00,,,0.00,WSDL version 423,2013-04-05 20:16:00,
2013-04-05 16:21:00,59.4,31.2,27.91,NW,310,3.6,6.7,34,0.00,,,0.00,WSDL version 423,2013-04-05 20:21:00,
2013-04-05 16:35:00,59.2,30.9,27.88,WNW,293,5.4,7.8,34,0.00,,,0.00,WSDL version 423,2013-04-05 20:35:00,
2013-04-05 16:40:00,59.1,30.8,27.91,NNW,343,4.4,7.8,34,0.00,,,0.00,WSDL version 423,2013-04-05 20:40:00,
2013-04-05 16:45:00,58.9,30.7,27.91,NNW,347,3.0,6.3,34,0.00,,,0.00,WSDL version 423,2013-04-05 20:45:00,
2013-04-05 17:11:00,59.3,30.2,27.88,WNW,293,3.4,4.9,34,0.00,,,0.00,WSDL version 423,2013-04-05 21:11:00,
2013-04-05 17:16:00,59.5,30.3,27.88,NNW,329,3.1,4.9,33,0.00,,,0.00,WSDL version 423,2013-04-05 21:16:00,
2013-04-05 17:21:00,59.4,30.3,27.88,North,0,0.0,4.7,33,0.00,,,0.00,WSDL version 423,2013-04-05 21:21:00,
2013-04-05 17:26:00,59.2,29.8,27.88,NNW,345,2.8,4.3,32,0.00,,,0.00,WSDL version 423,2013-04-05 21:26:00,
2013-04-05 17:38:00,59.5,30.0,27.88,NW,315,3.9,5.6,33,0.00,,,0.00,WSDL version 423,2013-04-05 21:38:00,
2013-04-05 17:48:00,59.7,29.9,27.88,North,356,3.0,4.9,32,0.00,,,0.00,WSDL version 423,2013-04-05 21:48:00,
2013-04-05 17:59:00,59.4,29.6,27.91,North,349,3.4,4.3,32,0.00,,,0.00,WSDL version 423,2013-04-05 21:59:00,
2013-04-05 18:05:00,59.3,29.8,27.91,North,354,2.3,4.3,33,0.00,,,0.00,WSDL version 423,2013-04-05 22:05:00,
2013-04-05 18:10:00,59.3,30.2,27.88,WNW,302,2.2,3.6,33,0.00,,,0.00,WSDL version 423,2013-04-05 22:10:00,
2013-04-05 18:23:00,59.6,31.2,27.88,WNW,293,1.3,3.6,34,0.00,,,0.00,WSDL version 423,2013-04-05 22:23:00,
2013-04-05 18:28:00,59.6,31.2,27.91,NW,315,2.9,3.4,34,0.00,,,0.00,WSDL version 423,2013-04-05 22:28:00,
2013-04-05 18:47:00,58.7,31.2,27.91,West,281,3.4,4.3,35,0.00,,,0.00,WSDL version 423,2013-04-05 22:47:00,
2013-04-05 18:52:00,58.6,31.1,27.91,NW,309,1.8,4.7,35,0.00,,,0.00,WSDL version 423,2013-04-05 22:52:00,
2013-04-05 18:57:00,58.4,30.9,27.91,ENE,68,2.9,4.7,35,0.00,,,0.00,WSDL version 423,2013-04-05 22:57:00,
2013-04-05 19:05:00,58.6,31.1,27.91,SW,225,1.7,2.9,35,0.00,,,0.00,WSDL version 423,2013-04-05 23:05:00,
2013-04-05 19:11:00,59.2,31.4,27.91,WNW,293,3.0,3.8,35,0.00,,,0.00,WSDL version 423,2013-04-05 23:11:00,
2013-04-05 19:18:00,60.0,32.0,27.91,ENE,68,1.6,3.6,34,0.00,,,0.00,WSDL version 423,2013-04-05 23:18:00,
2013-04-05 19:23:00,59.1,31.3,27.91,NE,34,2.1,5.4,35,0.00,,,0.00,WSDL version 423,2013-04-05 23:23:00,
2013-04-05 19:28:00,58.6,31.0,27.91,NNE,23,2.0,5.4,35,0.00,,,0.00,WSDL version 423,2013-04-05 23:28:00,
2013-04-05 19:36:00,57.9,30.4,27.91,West,276,1.0,3.4,35,0.00,,,0.00,WSDL version 423,2013-04-05 23:36:00,
2013-04-05 19:57:00,56.1,29.5,27.94,WNW,293,0.0,2.5,36,0.00,,,0.00,WSDL version 423,2013-04-05 23:57:00,
2013-04-05 20:02:00,55.2,28.8,27.94,SSE,158,0.0,2.0,36,0.00,,,0.00,WSDL version 423,2013-04-06 00:02:00,
2013-04-05 20:12:00,53.6,28.2,27.94,East,90,1.7,2.0,38,0.00,,,0.00,WSDL version 423,2013-04-06 00:12:00,
2013-04-05 20:17:00,53.0,28.1,27.94,NE,45,1.2,2.5,38,0.00,,,0.00,WSDL version 423,2013-04-06 00:17:00,
2013-04-05 20:22:00,52.4,28.2,27.94,SSW,203,0.0,2.5,40,0.00,,,0.00,WSDL version 423,2013-04-06 00:22:00,
2013-04-05 20:27:00,51.5,28.5,27.94,ESE,104,0.0,1.1,41,0.00,,,0.00,WSDL version 423,2013-04-06 00:27:00,
2013-04-05 20:32:00,50.9,28.2,27.94,ENE,60,0.3,0.0,42,0.00,,,0.00,WSDL version 423,2013-04-06 00:32:00,
2013-04-05 20:37:00,50.4,28.4,27.94,SE,128,0.1,1.6,44,0.00,,,0.00,WSDL version 423,2013-04-06 00:37:00,
2013-04-05 20:42:00,49.7,28.9,27.94,ENE,68,1.6,2.2,45,0.00,,,0.00,WSDL version 423,2013-04-06 00:42:00,
2013-04-05 20:47:00,49.4,29.5,27.94,ENE,68,0.0,2.2,46,0.00,,,0.00,WSDL version 423,2013-04-06 00:47:00,
2013-04-05 20:52:00,49.2,29.6,27.94,NNW,338,0.0,1.3,47,0.00,,,0.00,WSDL version 423,2013-04-06 00:52:00,
2013-04-05 20:57:00,48.3,29.4,27.94,NNW,347,1.3,2.0,48,0.00,,,0.00,WSDL version 423,2013-04-06 00:57:00,
2013-04-05 21:02:00,47.8,29.3,27.94,ESE,113,1.3,2.2,49,0.00,,,0.00,WSDL version 423,2013-04-06 01:02:00,
2013-04-05 21:07:00,47.5,29.3,27.94,East,83,0.7,2.2,49,0.00,,,0.00,WSDL version 423,2013-04-06 01:07:00,
2013-04-05 21:12:00,47.3,29.4,27.94,ENE,72,1.1,1.6,50,0.00,,,0.00,WSDL version 423,2013-04-06 01:12:00,
2013-04-05 21:17:00,46.9,29.8,27.94,ENE,75,1.8,2.5,52,0.00,,,0.00,WSDL version 423,2013-04-06 01:17:00,
2013-04-05 21:22:00,46.4,29.8,27.94,ENE,71,1.2,2.5,53,0.00,,,0.00,WSDL version 423,2013-04-06 01:22:00,
2013-04-05 21:27:00,45.9,29.9,27.94,East,86,0.9,2.5,54,0.00,,,0.00,WSDL version 423,2013-04-06 01:27:00,
2013-04-05 21:32:00,45.6,29.9,27.94,East,98,2.0,2.5,54,0.00,,,0.00,WSDL version 423,2013-04-06 01:32:00,
2013-04-05 21:37:00,45.3,30.3,27.94,East,96,1.3,2.5,55,0.00,,,0.00,WSDL version 423,2013-04-06 01:37:00,
2013-04-05 21:42:00,45.3,30.1,27.96,ENE,68,1.1,2.5,55,0.00,,,0.00,WSDL version 423,2013-04-06 01:42:00,
2013-04-05 21:47:00,45.3,29.7,27.96,NE,45,0.0,1.6,54,0.00,,,0.00,WSDL version 423,2013-04-06 01:47:00,
2013-04-05 21:53:00,45.0,29.5,27.96,SSW,203,0.0,0.0,54,0.00,,,0.00,WSDL version 423,2013-04-06 01:53:00,
2013-04-05 22:02:00,43.9,29.3,27.96,South,180,0.0,0.0,56,0.00,,,0.00,WSDL version 423,2013-04-06 02:02:00,
2013-04-05 22:07:00,43.5,28.7,27.96,South,180,0.0,0.0,56,0.00,,,0.00,WSDL version 423,2013-04-06 02:07:00,
2013-04-05 22:12:00,43.1,29.0,27.96,South,180,0.0,0.0,58,0.00,,,0.00,WSDL version 423,2013-04-06 02:12:00,
2013-04-05 22:17:00,42.8,29.2,27.96,NE,56,0.4,1.3,59,0.00,,,0.00,WSDL version 423,2013-04-06 02:17:00,
2013-04-05 22:22:00,42.4,29.8,27.96,East,90,1.2,2.0,60,0.00,,,0.00,WSDL version 423,2013-04-06 02:22:00,
2013-04-05 22:27:00,42.2,29.5,27.96,NE,45,0.0,2.0,61,0.00,,,0.00,WSDL version 423,2013-04-06 02:27:00,
2013-04-05 22:32:00,41.9,29.4,27.96,ENE,68,0.6,1.3,62,0.00,,,0.00,WSDL version 423,2013-04-06 02:32:00,
2013-04-05 22:37:00,41.6,29.3,27.96,ENE,68,0.0,1.3,61,0.00,,,0.00,WSDL version 423,2013-04-06 02:37:00,
2013-04-05 22:42:00,41.4,29.0,27.96,East,90,1.1,1.6,61,0.00,,,0.00,WSDL version 423,2013-04-06 02:42:00,
2013-04-05 22:47:00,41.3,29.2,27.96,East,90,0.4,1.6,62,0.00,,,0.00,WSDL version 423,2013-04-06 02:47:00,
2013-04-05 22:52:00,41.1,29.1,27.96,South,180,0.0,1.3,62,0.00,,,0.00,WSDL version 423,2013-04-06 02:52:00,
2013-04-05 23:00:00,40.5,29.2,27.96,South,180,0.0,0.0,64,0.00,,,0.00,WSDL version 423,2013-04-06 03:00:00,
2013-04-05 23:05:00,40.2,28.9,27.96,ENE,68,0.7,1.3,64,0.00,,,0.00,WSDL version 423,2013-04-06 03:05:00,
2013-04-05 23:10:00,40.0,29.1,27.99,NNE,23,0.4,1.3,65,0.00,,,0.00,WSDL version 423,2013-04-06 03:10:00,
2013-04-05 23:17:00,39.7,28.8,27.99,SSE,158,0.0,1.1,65,0.00,,,0.00,WSDL version 423,2013-04-06 03:17:00,
2013-04-05 23:22:00,39.6,28.6,27.99,SSE,158,0.0,0.0,65,0.00,,,0.00,WSDL version 423,2013-04-06 03:22:00,
2013-04-05 23:27:00,39.2,28.7,27.99,SSE,158,0.0,0.0,66,0.00,,,0.00,WSDL version 423,2013-04-06 03:27:00,
2013-04-05 23:37:00,38.8,29.1,27.99,NNE,23,0.9,1.1,68,0.00,,,0.00,WSDL version 423,2013-04-06 03:37:00,
2013-04-05 23:47:00,38.5,28.8,27.99,NNE,23,0.0,0.0,67,0.00,,,0.00,WSDL version 423,2013-04-06 03:47:00,
2013-04-05 23:52:00,38.2,28.7,27.99,NNE,23,0.0,0.0,69,0.00,,,0.00,WSDL version 423,2013-04-06 03:52:00,
2013-04-05 23:57:00,38.1,29.0,27.99,ENE,68,1.3,2.0,70,0.00,,,0.00,WSDL version 423,2013-04-06 03:57:00,